Wind_Speed
47 49 50 50 49 48 48 49 49 48 47 47 47 46 47 48 48 48 48 48 48 49 49 49 49 49 50 50 51 51 51 51 52 52 52 53 53 53
47 48 49 49 50 49 49 49 49 49 50 49 49 49 49 50 50 48 49 50 49 49 50 50 50 50 51 51 51 52 52 53 54 54 55 56 56 56
46 48 48 48 49 49 49 48 49 50 50 50 50 51 50 51 51 50 50 51 51 50 51 51 51 51 52 53 53 53 54 55 56 56 57 58 58 58
46 48 48 48 48 49 49 48 48 49 50 50 50 51 51 51 51 52 52 52 52 52 52 52 53 53 53 54 55 56 56 57 58 58 59 59 59 59
45 46 47 47 47 48 48 48 48 49 50 50 49 50 51 51 52 52 52 53 53 53 53 54 54 55 55 56 57 57 58 58 58 58 59 59 59 59
44 45 46 46 46 47 47 48 49 50 51 50 49 50 51 51 52 53 53 54 53 53 53 54 55 56 57 58 58 59 59 59 60 60 60 60 60 61
42 44 45 45 45 46 47 48 49 50 51 51 50 50 51 52 52 53 53 54 53 54 54 55 56 57 58 59 59 59 60 60 61 61 60 60 61 62
39 41 42 44 44 46 46 47 48 49 49 50 50 50 50 52 52 52 53 54 54 55 56 57 58 58 59 59 59 59 60 61 61 61 62 62 62 62
38 39 40 42 43 44 46 46 47 47 47 48 49 49 50 51 52 52 53 54 55 56 57 57 58 59 59 59 59 59 60 61 61 62 62 62 62 62
38 39 40 41 42 44 45 45 46 47 47 48 48 48 49 50 51 52 52 54 55 56 57 57 58 58 58 58 59 60 61 61 61 62 62 61 61 60
37 38 40 41 42 43 44 45 45 46 46 47 49 49 50 51 52 52 53 54 55 56 57 57 57 57 57 57 58 60 60 60 60 60 59 58 58 57
38 39 40 41 42 43 43 44 45 45 46 47 49 50 51 51 52 52 53 54 54 54 54 55 56 57 56 56 57 58 58 58 58 57 57 57 57 56
37 39 40 41 42 43 43 43 44 45 46 47 49 49 50 50 50 50 51 52 53 53 54 54 54 55 55 56 57 57 57 56 56 55 55 55 55 54
36 37 37 38 40 41 42 43 44 45 46 46 46 47 47 48 49 49 49 50 51 52 52 53 53 53 54 55 55 55 55 54 54 54 53 53 52 51
36 37 38 38 39 40 41 42 43 43 43 44 44 44 45 46 46 47 48 49 50 50 50 50 51 52 53 53 53 53 53 52 52 52 51 50 49 48
35 35 36 37 38 39 41 41 41 41 41 42 42 42 43 44 44 46 47 48 48 48 48 48 49 50 50 50 50 50 50 50 50 49 48 47 47 47
35 35 36 37 38 39 39 39 39 39 40 41 41 42 42 43 45 46 47 47 46 46 46 46 46 46 47 47 48 48 48 47 47 46 45 45 45 44
36 36 37 37 37 37 37 37 38 39 39 40 41 42 42 44 45 45 45 45 45 44 44 44 44 45 44 45 45 46 45 45 45 45 44 43 43 43
35 36 36 36 36 37 37 38 38 39 40 40 41 42 43 44 44 44 43 43 43 42 42 43 43 43 43 44 44 44 44 43 43 42 42 42 41 40
36 36 36 36 36 37 37 37 38 39 40 41 42 42 42 43 43 42 41 41 41 41 42 42 42 43 43 43 42 42 42 41 40 39 39 38 37 37
36 36 36 36 36 36 37 37 38 39 40 40 41 41 41 41 40 40 40 40 40 40 41 41 42 42 42 41 40 39 38 38 37 36 36 35 34 34
36 36 36 36 37 37 37 38 38 38 38 38 38 38 38 38 38 38 39 39 39 39 39 40 40 40 39 38 37 36 35 35 35 34 33 33 32 31
36 36 37 37 37 38 37 37 37 37 37 37 37 36 36 36 36 37 37 37 37 38 38 38 38 37 36 36 35 34 33 33 32 31 31 31 31 30
Wind_Direction
246 247 247 247 248 248 248 250 251 251 252 254 256 257 259 261 262 264 265 266 269 271 272 275 276 276 278 279 279 281 283 284 285 285 286 287 288 288
247 247 248 249 249 249 251 252 253 254 255 255 257 259 261 262 263 266 266 267 269 270 272 273 275 276 277 278 280 282 283 284 284 285 286 287 287 288
249 249 248 249 250 251 252 253 254 255 256 258 259 260 261 263 265 266 267 267 269 270 272 272 274 276 278 279 281 283 284 284 284 285 286 287 288 289
251 250 249 250 250 252 252 252 253 255 257 259 260 261 262 263 265 266 267 268 269 270 272 273 274 276 278 279 281 282 283 284 285 286 287 288 289 289
252 252 251 251 251 251 251 252 254 256 257 259 260 261 262 264 265 266 267 269 269 270 272 273 275 277 278 279 281 282 283 284 286 287 287 288 288 288
253 252 252 251 251 251 252 253 255 256 257 259 260 261 262 264 265 266 267 269 270 271 272 273 275 277 278 279 281 282 283 284 285 286 287 288 288 288
254 252 252 252 252 252 253 255 256 257 258 259 261 263 263 264 266 267 268 270 270 271 273 274 276 277 279 280 281 282 283 284 285 285 286 287 288 289
254 252 251 252 253 253 254 256 257 259 260 260 261 263 265 266 267 269 271 271 271 271 273 274 276 278 279 281 281 282 282 283 284 284 285 286 288 288
254 253 253 253 253 254 254 256 257 259 261 261 262 264 265 267 269 271 272 273 273 273 274 276 277 279 280 281 282 282 283 283 284 285 286 287 288 288
256 255 255 255 256 256 256 257 259 261 262 263 264 266 268 269 271 272 273 275 274 274 275 277 278 280 282 282 282 282 283 283 284 285 286 287 288 289
256 257 257 257 257 258 259 260 261 263 264 265 266 267 268 270 271 273 274 276 275 275 276 277 278 280 281 282 283 283 284 284 285 286 286 287 288 289
258 258 260 260 260 261 261 262 263 265 266 267 268 268 270 271 272 274 275 275 276 277 277 278 280 281 281 282 283 284 284 285 287 287 287 288 288 288
261 260 261 262 263 262 263 263 265 267 268 269 270 270 271 272 272 274 275 277 278 278 279 280 281 282 283 283 284 284 285 286 287 287 287 288 288 288
264 264 264 265 264 263 264 265 266 268 270 270 270 270 271 272 273 274 276 278 279 280 280 281 282 283 284 284 285 285 286 286 287 288 288 288 288 288
266 266 266 265 265 265 266 268 269 270 271 270 271 272 273 274 274 275 277 279 280 280 280 282 283 284 284 285 285 286 286 286 287 288 288 288 288 288
269 268 267 267 268 269 270 269 270 271 271 271 272 273 274 275 276 278 279 281 281 282 282 283 284 284 285 285 286 286 286 287 288 288 288 288 288 288
270 269 269 270 270 272 271 270 270 271 271 272 273 274 275 276 278 279 280 280 281 282 282 283 283 284 285 286 287 287 287 288 289 289 288 287 287 288
270 269 270 270 271 271 270 269 271 272 273 274 275 276 277 278 279 281 282 281 282 282 283 283 284 285 286 287 288 289 289 289 290 289 288 287 287 287
270 270 270 270 270 270 271 271 272 274 275 276 277 277 278 279 280 281 281 281 281 282 283 283 284 285 286 287 289 289 290 290 290 289 288 288 288 287
271 271 270 270 270 271 273 274 274 275 276 277 278 278 279 279 280 280 280 280 280 282 283 283 284 285 286 288 289 289 290 291 291 290 290 289 289 289
271 271 271 271 272 273 274 275 276 277 278 279 279 279 280 280 280 280 279 280 280 282 282 284 285 286 288 288 288 288 289 291 292 292 291 290 290 289
270 271 271 272 273 274 275 276 277 278 279 279 279 279 279 279 280 280 280 280 282 283 284 285 286 287 287 287 287 288 289 290 292 293 292 292 291 290
270 271 272 273 274 275 276 277 278 279 280 280 280 280 280 280 281 281 281 282 283 284 285 286 286 286 285 286 287 287 289 290 292 292 293 293 293 293
Height
5680 5683 5686 5689 5692 5695 5698 5701 5704 5707 5710 5712 5713 5715 5716 5717 5718 5719 5720 5720 5720 5720 5719 5718 5717 5716 5714 5713 5711 5709 5707 5704 5701 5698 5695 5692 5689 5686
5668 5671 5674 5678 5681 5684 5686 5689 5692 5694 5697 5700 5701 5703 5704 5705 5706 5707 5707 5708 5707 5707 5706 5706 5705 5704 5702 5700 5698 5696 5694 5691 5688 5685 5682 5678 5675 5671
5656 5659 5663 5666 5669 5672 5674 5677 5679 5682 5684 5687 5688 5690 5691 5692 5693 5694 5694 5694 5694 5694 5693 5693 5692 5690 5689 5687 5685 5682 5679 5676 5673 5670 5667 5663 5660 5656
5646 5648 5651 5654 5657 5660 5662 5665 5667 5669 5672 5674 5675 5677 5678 5679 5680 5681 5681 5681 5681 5680 5680 5679 5678 5676 5674 5673 5670 5668 5665 5662 5659 5655 5652 5649 5645 5640
5635 5637 5640 5642 5645 5648 5650 5653 5655 5657 5659 5661 5663 5664 5665 5665 5666 5667 5667 5667 5667 5666 5666 5665 5664 5662 5660 5658 5655 5652 5649 5647 5643 5640 5636 5633 5629 5625
5624 5626 5628 5631 5634 5636 5638 5640 5642 5644 5646 5648 5649 5650 5651 5651 5652 5652 5652 5652 5652 5652 5651 5650 5649 5647 5645 5642 5640 5637 5634 5630 5627 5624 5620 5617 5613 5609
5613 5615 5617 5619 5622 5624 5626 5628 5630 5632 5633 5635 5636 5637 5637 5638 5638 5638 5638 5638 5638 5637 5636 5636 5634 5632 5629 5627 5624 5620 5617 5614 5611 5608 5604 5601 5597 5592
5602 5604 5606 5608 5610 5612 5614 5616 5618 5619 5620 5622 5623 5624 5624 5624 5624 5624 5624 5624 5624 5624 5621 5620 5618 5616 5614 5611 5608 5604 5601 5598 5595 5592 5588 5584 5580 5575
5592 5594 5595 5597 5599 5601 5602 5604 5605 5606 5607 5608 5610 5610 5611 5612 5611 5611 5610 5609 5608 5607 5606 5605 5602 5600 5597 5594 5591 5588 5585 5582 5578 5575 5571 5567 5563 5558
5582 5583 5585 5586 5588 5589 5591 5592 5593 5594 5595 5596 5597 5598 5597 5597 5597 5596 5595 5594 5593 5591 5590 5589 5587 5584 5581 5578 5575 5572 5569 5566 5562 5558 5554 5550 5546 5542
5572 5573 5574 5576 5577 5578 5579 5581 5582 5582 5582 5583 5584 5584 5584 5583 5582 5581 5580 5579 5578 5576 5574 5573 5571 5569 5566 5563 5559 5556 5553 5549 5545 5541 5538 5534 5530 5526
5562 5562 5564 5565 5566 5566 5567 5568 5569 5570 5570 5570 5570 5570 5569 5568 5567 5566 5565 5564 5562 5561 5559 5557 5555 5552 5551 5548 5544 5540 5537 5533 5529 5526 5522 5518 5514 5510
5551 5552 5553 5553 5554 5554 5555 5556 5556 5557 5557 5557 5557 5556 5555 5554 5552 5551 5550 5549 5547 5546 5544 5542 5540 5537 5535 5533 5529 5525 5521 5518 5514 5511 5507 5503 5499 5495
5541 5542 5542 5542 5543 5543 5543 5543 5544 5544 5544 5543 5543 5542 5541 5540 5539 5537 5536 5534 5533 5531 5529 5527 5525 5522 5519 5517 5514 5511 5507 5503 5500 5496 5493 5489 5485 5481
5531 5531 5531 5531 5531 5531 5531 5531 5531 5531 5530 5530 5530 5529 5528 5527 5525 5524 5522 5520 5518 5516 5514 5512 5510 5507 5504 5501 5499 5496 5493 5489 5485 5482 5479 5475 5471 5467
5520 5520 5520 5520 5520 5519 5519 5519 5518 5518 5518 5517 5517 5516 5515 5514 5513 5511 5509 5507 5505 5503 5500 5497 5495 5493 5490 5486 5484 5481 5478 5475 5472 5468 5465 5461 5457 5454
5510 5510 5509 5509 5508 5508 5507 5507 5506 5506 5505 5505 5504 5504 5503 5502 5500 5498 5496 5493 5491 5489 5487 5484 5482 5479 5476 5474 5471 5468 5464 5461 5458 5454 5451 5449 5445 5441
5499 5499 5498 5498 5497 5497 5496 5496 5495 5494 5494 5493 5492 5491 5490 5489 5487 5485 5482 5480 5478 5476 5474 5472 5470 5467 5465 5462 5458 5455 5451 5448 5445 5441 5438 5436 5433 5429
5488 5488 5487 5487 5486 5486 5485 5485 5484 5483 5482 5481 5480 5479 5477 5476 5474 5472 5470 5468 5466 5465 5463 5460 5458 5455 5453 5451 5447 5442 5439 5436 5433 5429 5426 5423 5421 5418
5477 5477 5476 5476 5476 5475 5474 5474 5473 5472 5471 5469 5468 5466 5464 5463 5461 5459 5458 5456 5454 5453 5451 5448 5446 5443 5441 5439 5436 5432 5427 5424 5421 5418 5415 5412 5409 5407
5466 5466 5466 5465 5465 5464 5463 5462 5461 5460 5459 5457 5455 5453 5452 5450 5448 5447 5446 5444 5442 5441 5439 5437 5434 5431 5428 5426 5424 5421 5417 5413 5410 5407 5404 5402 5400 5397
5455 5455 5455 5454 5454 5453 5452 5451 5450 5448 5446 5445 5443 5441 5440 5438 5437 5435 5434 5433 5431 5429 5427 5425 5422 5419 5417 5415 5413 5410 5407 5404 5401 5398 5394 5392 5389 5388
5444 5444 5444 5443 5442 5441 5440 5439 5438 5436 5435 5433 5431 5430 5428 5427 5426 5424 5423 5421 5420 5418 5416 5414 5411 5409 5406 5404 5402 5400 5398 5395 5392 5390 5387 5383 5381 5378